User: anonymous   Login
Location: Unspecified
(0.0000°N, 0.0000°E)
Time: 17:08:09
(UTC+01:00)
Language:

ITAMSAT 1 - Orbit

View from above orbital plane
View from above orbital plane
View from above satellite
View from above satellite

Ground track
Ground track

The orbit data is extracted from the following two-line orbital elements,

1 22826U 93061D   15030.84561035  .00000153  00000-0  76450-4 0  6341
2 22826 098.6874 341.2345 0008515 350.1975 009.9040 14.30137012113453
Epoch (UTC): 30 January 2015 20:17:40
Eccentricity: 0.0008515
inclination: 98.6874°
perigee height: 785 km
apogee height: 797 km
right ascension of ascending node: 341.2345°
argument of perigee: 350.1975°
revolutions per day: 14.30137012
mean anomaly at epoch: 9.9040°
orbit number at epoch: 11345

The dashed part of the orbit path shows where the satellite is in the earth's shadow,  

DLR